Location: ???????
(55.3754°N, 39.3545°E)
Time: 20:34:04
(UTC+00:00)

Meteor 1-27 - Pass Details

Date: 14 April 2026
Orbit: 835 x 892 km, 81.3° (Epoch: 11 May)

Event Time Altitude Azimuth Distance (km) Brightness Sun altitude
Exits shadow 22:04:32 58° 211° (SSW) 1,022 4.2 -24.4°
Maximum altitude 22:05:42 80° 285° (WNW) 902 4.2 -24.3°
Drops below altitude 10° 22:11:30 10° 13° (NNE) 2,537 7.8 -24.2°
Sets 22:13:56 0° 15° (NNE) 3,470 8.8 -24.1°
